map of NDZ home
Great Circle Mapper logo
NDZ - Airport
Location
City:  Nordholz-Spieka, Lower Saxony, Germany
Name:Cuxhaven
ICAO / IATA:ETMN / NDZ

Details
Type:Airport (Flugplatz, Airfield)
Use:Military
Latitude:5346'04"N (53.767667)
Longitude:839'31"E (8.658500)
Elevation:74 ft (23 m)
Variation:1.97E (WMM2015 magnetic declination)
0.14 annual change
Runways:1
Longest:8002 × 148 ft (2439 × 45 m), paved

Time
Time Zone:UTC+1 (DST+2)
Local Time:

Weather
METAR:ETMN 290620Z 24011KT 9999 FEW007 BKN035 08/07 Q0997 BLU

Related Locations
Nearby:
Farthest:CHT: 11705 mi / 18837 km
Waitangi [Tuuta], Chatham Islands, NZ

Find:

   beyond  
but within

Other Information
Maps:
NOTAMs:
Links:
Sources:

  
flag of Germany
flag of Lower Saxony
  

Sectional Chart

Flight Planning
at skyvector.com

Satellite Image

Google Maps Satellite View

 

Copyright © 2004-2015 Karl L. Swartz. All rights reserved.
The Great Circle Mapper name and logo are trademarks of the Great Circle Mapper.
All other trademarks mentioned herein belong to their respective owners.
Please see credits for attibutions and further copyright information.

  Follow gcmap on Facebook Follow gcmap on Twitter Follow gcmap on Google+

hCard Microformat

Geo Microformat